Saint Simons Island, GA

10:35 PM EST on December 07, 2016 (GMT -0500)
McKinnon

Weather History for KSSI - July, 2013

Change the Weather History Date:

Monday, July 22, 2013

  Actual Average Record
Temperature  
Mean Temperature 83 °F 83 °F  
Max Temperature 90 °F 91 °F 101 °F (1977)
Min Temperature 75 °F 76 °F 69 °F (1965)
Degree Days  
Heating Degree Days 0 0  
Month to date heating degree days 0 0  
Since 1 June heating degree days 0 0  
Since 1 July heating degree days 0 0  
Cooling Degree Days 18 18  
Month to date cooling degree days 363 391  
Year to date cooling degree days 1259 1292  
Since 1 June cooling degree days 858 850  
Growing Degree Days 32 (Base 50)    
Moisture  
Dew Point 73 °F    
Average Humidity 73    
Maximum Humidity 94    
Minimum Humidity 52    
Precipitation  
Precipitation 0.40 in 0.13 in 1.75 in (1982)
Month to date precipitation 4.87 2.84  
Year to date precipitation 25.60 22.60  
Snow  
Snow 0.00 in - 0.00 in ()
Month to date snowfall 0.0  
Since 1 June snowfall 0.0  
Since 1 July snowfall 0.0  
Snow Depth 0.00 in    
Sea Level Pressure  
Sea Level Pressure 30.05 in    
Wind  
Wind Speed 12 mph (SW)    
Max Wind Speed 33 mph    
Max Gust Speed 43 mph    
Visibility 8 miles    
Events Rain , Thunderstorm    
T = Trace of Precipitation, MM = Missing Value Source: NWS Daily Summary

Daily Weather History Graph

Daily Weather History Graph

Search for Another Location

Airport or City:

Trip Planner

Search our weather history database for the weather conditions in past years. The results will help you decide how hot, cold, wet, or windy it might be!

Date:

Astronomy

Jul. 22, 2013 Rise Set
Actual Time 6:36 AM EDT 8:27 PM EDT
Civil Twilight 6:09 AM EDT 8:54 PM EDT
Nautical Twilight 5:36 AM EDT 9:26 PM EDT
Astronomical Twilight 5:02 AM EDT 10:01 PM EDT
Moon 8:18 PM EDT (7/22) 6:27 AM EDT (7/22)
Length of Visible Light 14h 44m
Length of Day
13h 50m
Full, 100% of the Moon is Illuminated
Jul 22
Full
Jul 22
Full
Jul 29
Last Quarter
Aug 6
New
Aug 14
First Quarter

Hourly Weather History & Observations

Time (EDT) Temp. Heat Index Dew Point Humidity Pressure Visibility Wind Dir Wind Speed Gust Speed Precip Events Conditions
12:53 AM 78.1 °F - 73.0 °F 84% 30.08 in 10.0 mi SSW 8.1 mph - N/A   Partly Cloudy
1:53 AM 77.0 °F - 73.0 °F 88% 30.06 in 10.0 mi SSW 5.8 mph - N/A   Partly Cloudy
2:53 AM 78.1 °F - 73.9 °F 87% 30.04 in 10.0 mi SW 8.1 mph - N/A   Clear
3:53 AM 77.0 °F - 73.9 °F 90% 30.02 in 10.0 mi SW 6.9 mph - N/A   Clear
4:17 AM 77.0 °F - 73.4 °F 89% 30.02 in 10.0 mi WSW 6.9 mph - N/A   Partly Cloudy
4:53 AM 75.9 °F - 73.9 °F 94% 30.02 in 10.0 mi WSW 8.1 mph - N/A   Partly Cloudy
5:53 AM 75.9 °F - 73.9 °F 94% 30.02 in 10.0 mi SW 10.4 mph 17.3 mph N/A   Clear
6:32 AM 75.2 °F - 73.4 °F 94% 30.03 in 10.0 mi WSW 8.1 mph - N/A   Partly Cloudy
6:53 AM 75.9 °F - 73.0 °F 91% 30.03 in 10.0 mi WSW 8.1 mph - N/A   Scattered Clouds
7:53 AM 77.0 °F - 73.0 °F 88% 30.05 in 10.0 mi WSW 10.4 mph - N/A   Clear
8:53 AM 79.0 °F - 72.0 °F 79% 30.07 in 10.0 mi West 9.2 mph 17.3 mph N/A   Clear
9:53 AM 82.0 °F 86.3 °F 71.1 °F 69% 30.08 in 10.0 mi WSW 10.4 mph - N/A   Clear
10:53 AM 84.0 °F 89.0 °F 71.1 °F 65% 30.08 in 10.0 mi West 10.4 mph - N/A   Partly Cloudy
11:53 AM 86.0 °F 91.5 °F 71.1 °F 61% 30.09 in 10.0 mi West 9.2 mph 17.3 mph N/A   Partly Cloudy
12:53 PM 88.0 °F 93.8 °F 71.1 °F 57% 30.07 in 10.0 mi WSW 9.2 mph - N/A   Partly Cloudy
1:53 PM 89.1 °F 93.7 °F 69.1 °F 52% 30.05 in 10.0 mi West 6.9 mph - N/A   Clear
2:51 PM 80.6 °F 84.6 °F 71.6 °F 74% 30.07 in 10.0 mi SW 31.1 mph 42.6 mph N/A Thunderstorm Overcast
2:53 PM 80.1 °F 83.6 °F 71.1 °F 74% 30.07 in 10.0 mi SW 29.9 mph 42.6 mph N/A Thunderstorm Overcast
2:58 PM 77.0 °F - 73.4 °F 89% 30.07 in 1.8 mi SW 24.2 mph 42.6 mph 0.06 in Thunderstorm Overcast
3:01 PM 75.2 °F - 73.4 °F 94% 30.08 in 0.8 mi SW 21.9 mph 39.1 mph 0.17 in Rain Heavy Rain
3:08 PM 75.2 °F - 71.6 °F 89% 30.07 in 0.8 mi SW 21.9 mph 33.4 mph 0.24 in Rain , Thunderstorm Heavy Rain
3:17 PM 75.2 °F - 73.4 °F 94% 30.07 in 0.8 mi WSW 8.1 mph 19.6 mph 0.37 in Rain , Thunderstorm Heavy Rain
3:20 PM 75.2 °F - 73.4 °F 94% 30.06 in 1.0 mi SW 9.2 mph 19.6 mph 0.38 in Rain Rain
3:23 PM 75.2 °F - 73.4 °F 94% 30.06 in 2.0 mi SW 11.5 mph 19.6 mph 0.38 in Rain Light Rain
3:30 PM 75.2 °F - 73.4 °F 94% 30.06 in 9.0 mi WSW 11.5 mph - 0.38 in Rain Light Rain
3:53 PM 75.0 °F - 72.0 °F 90% 30.06 in 10.0 mi WSW 12.7 mph 19.6 mph 0.40 in Rain Light Rain
4:53 PM 77.0 °F - 73.0 °F 88% 30.03 in 10.0 mi SW 10.4 mph - 0.00 in   Clear
5:53 PM 78.1 °F - 72.0 °F 81% 30.03 in 10.0 mi SW 13.8 mph - N/A   Clear
6:53 PM 78.1 °F - 73.0 °F 84% 30.02 in 10.0 mi SW 13.8 mph - N/A   Scattered Clouds
7:53 PM 79.0 °F - 73.9 °F 84% 30.01 in 10.0 mi SW 9.2 mph - N/A   Clear
8:53 PM 79.0 °F - 73.9 °F 84% 30.01 in 10.0 mi SW 10.4 mph - N/A   Clear
9:53 PM 78.1 °F - 73.9 °F 87% 30.01 in 10.0 mi SW 16.1 mph 21.9 mph N/A   Clear
10:53 PM 77.0 °F - 71.1 °F 82% 30.02 in 10.0 mi SW 17.3 mph 23.0 mph N/A   Clear
11:53 PM 77.0 °F - 72.0 °F 84% 30.01 in 10.0 mi SW 19.6 mph 25.3 mph N/A   Clear